NOAA 16 DEB, 42374

Orbit data source: Space-Track

NOAA 16 DEB, 42374 is space debris in SSO originally from a launch on Thu, 21 Sep 2000 UTC launched from the Air Force Western Test Range (AFWTR). Debris objects in space refer to the collection of defunct objects orbiting the Earth. Examples of debris include non-operational satellites, rocket bodies, and fragments generated from explosions, collisions, or faulty payload assembly.

Loading next visibility...
Identifier
42374, 2000-055RS
Orbit
SSO
Country
Flag of USUS
Related business
Manufacturer
Unknown
Mission
Spacecraft
Bus & Motor
Unknown
Mass
Unknown
Launch date (UTC)
2000-09-21 (25 years ago)
Launch vehicle
Unknown
Launch site
Air Force Western Test Range (AFWTR)
Object type
Payload
Rocket body
Debris
Shape & HBR
Unknown shape, 0.1 m
Radar Cross Section
Small (<0.1 m²)

Expand to show TLE details & history
Last TLE update: 2 days ago

TLE from 2 days ago
0 NOAA 16 DEB
1 42374U 00055RS  26034.34730106  .00040231  00000-0  65840-2 0  9994
2 42374  98.8489 174.2301 0005233 117.7405 242.4330 14.70622235509020
Epoch: 2026-02-03T08:20Z
TLE epoch observation values (Epoch: 2026-02-03T08:20:06.811Z)
Latitude
-0.00004°
Longitude
-84.32781°
Altitude
663.767 km
Speed
7.524 km/s
True Right ascension
11h 36m 55s
True Declination
0° 00' 00"
Sunlit
Object was in full shadow at epoch
Visualization orbit readout
Latitude
Unknown
Longitude
Unknown
Altitude
Unknown
Speed
Unknown
Apparent Right ascension
Unknown
Apparent Declination
Unknown
Sunlit
N/A
Visualization observer readout
Local Sidereal Time
22:20:26
Azimuth
Unknown
Elevation
Unknown
Doppler factor
Unknown
Orbital elements
Apogee altitude
659.862 km
Perigee altitude
652.499 km
Semi-major axis
7,034.318 km
Eccentricity
0.00052
Inclination
98.8489°
RAAN
174.2301°
Arg. of periapsis
117.7405°
True anomaly
242.37986°
Mean anomaly
242.433°
Eccentric anomaly
242.40643°
Mean motion
3.67883 °/min
Orbital period
97.86 mins
BSTAR
0.006584
Loading maneuver chart data...
Computing Atmospheric mass density...
Loading historical data...
Loading historical data...
Loading historical data...
Loading historical data...
Loading historical data...
Loading historical data...
Loading historical data...

Documentation

Showing up to 5 results
|